EXS456 LICR-LPPT

Flight info

Callsign EXS456
Flight time 3h 18m
Altitude 34000
Route RCA Q58 LONDA Z854 BAGIX Q182 MALAV M601 BCN N975 ELVAR DCT UPULO
Aircraft B738/M-SDE2E3FGHIRWXY/LB1

Departure

Time 2026-05-04 16:40
Airport Reggio Calabria Airport (LICR)

Arrival

Time 2026-05-04 19:59
Airport Lisbon Humberto Delgado Airport (LPPT)
Time Latitude Longitude Altitude Speed Heading
2026-05-04 16:11 38.07355 15.65305 65 ft 0 kts 106°
2026-05-04 16:30 38.07353 15.65269 58 ft 4 kts 36°
2026-05-04 16:31 38.07320 15.65262 58 ft 1 kts 332°
2026-05-04 16:34 38.07332 15.65216 64 ft 5 kts 256°
2026-05-04 16:34 38.07309 15.65155 57 ft 0 kts 243°
2026-05-04 16:36 38.07297 15.65125 51 ft 9 kts 243°
2026-05-04 16:36 38.07375 15.64989 59 ft 13 kts 332°
2026-05-04 16:37 38.07615 15.64832 67 ft 23 kts 333°
2026-05-04 16:37 38.07755 15.64741 84 ft 22 kts 332°
2026-05-04 16:37 38.08003 15.64579 98 ft 21 kts 334°
2026-05-04 16:38 38.08102 15.64530 102 ft 0 kts 267°
2026-05-04 16:39 38.08080 15.64536 101 ft 3 kts 162°
2026-05-04 16:39 38.07765 15.64738 85 ft 88 kts 153°
2026-05-04 16:40 38.05865 15.65842 577 ft 186 kts 160°
2026-05-04 16:40 38.03209 15.66110 2314 ft 199 kts 202°
2026-05-04 16:41 38.01324 15.63839 3939 ft 193 kts 247°
2026-05-04 16:41 38.02003 15.58761 5378 ft 210 kts 314°
2026-05-04 16:42 38.06557 15.56608 6314 ft 251 kts 343°
2026-05-04 16:43 38.10138 15.55437 7218 ft 275 kts 344°
2026-05-04 16:43 38.13530 15.53302 8663 ft 276 kts 319°
2026-05-04 16:43 38.14966 15.51694 9364 ft 280 kts 317°
2026-05-04 16:44 38.21205 15.44645 10868 ft 335 kts 319°
2026-05-04 16:45 38.24957 15.40581 11142 ft 371 kts 320°
2026-05-04 16:46 38.31079 15.34049 12246 ft 389 kts 320°
2026-05-04 16:46 38.35250 15.29619 13315 ft 390 kts 320°
2026-05-04 16:47 38.39455 15.25149 14145 ft 397 kts 319°
2026-05-04 16:47 38.43679 15.20652 15031 ft 399 kts 319°
2026-05-04 16:48 38.50106 15.13795 16256 ft 404 kts 319°
2026-05-04 16:48 38.52265 15.11488 16645 ft 405 kts 319°
2026-05-04 16:49 38.56603 15.06847 17395 ft 409 kts 319°
2026-05-04 16:49 38.60977 15.02159 18131 ft 412 kts 319°
2026-05-04 16:50 38.65383 14.97430 18787 ft 415 kts 319°
2026-05-04 16:50 38.69069 14.93467 19261 ft 417 kts 319°
2026-05-04 16:51 38.73535 14.88657 19793 ft 421 kts 319°
2026-05-04 16:51 38.75780 14.86237 20076 ft 423 kts 319°
2026-05-04 16:51 38.80293 14.81365 20630 ft 426 kts 319°
2026-05-04 16:52 38.84843 14.76445 21154 ft 429 kts 319°
2026-05-04 16:52 38.87124 14.73975 21412 ft 430 kts 319°
2026-05-04 16:53 38.91711 14.69003 21907 ft 433 kts 319°
2026-05-04 16:53 38.98653 14.61459 22599 ft 438 kts 319°
2026-05-04 16:54 39.00979 14.58927 22815 ft 439 kts 319°
2026-05-04 16:55 39.10316 14.48740 23626 ft 444 kts 319°
2026-05-04 16:55 39.15044 14.43567 23976 ft 446 kts 319°
2026-05-04 16:56 39.19774 14.38383 24398 ft 446 kts 319°
2026-05-04 16:56 39.26855 14.30599 24990 ft 446 kts 317°
2026-05-04 16:57 39.29009 14.27733 25150 ft 445 kts 308°
2026-05-04 16:57 39.32310 14.21000 25575 ft 444 kts 295°
2026-05-04 16:58 39.35799 14.09917 26270 ft 441 kts 293°
2026-05-04 16:58 39.36930 14.06302 26604 ft 438 kts 293°
2026-05-04 16:59 39.39210 13.99063 27251 ft 432 kts 294°
2026-05-04 17:00 39.43703 13.84851 28711 ft 418 kts 293°
2026-05-04 17:00 39.46989 13.74426 29528 ft 415 kts 293°
2026-05-04 17:01 39.49144 13.67565 30270 ft 408 kts 293°
2026-05-04 17:01 39.51256 13.60823 30664 ft 407 kts 293°
2026-05-04 17:02 39.53381 13.54023 31041 ft 407 kts 293°
2026-05-04 17:02 39.55494 13.47245 31379 ft 407 kts 292°
2026-05-04 17:03 39.56558 13.43824 31396 ft 411 kts 292°
2026-05-04 17:03 39.57627 13.40385 31500 ft 412 kts 292°
2026-05-04 17:03 39.59760 13.33508 32001 ft 409 kts 292°
2026-05-04 17:04 39.61873 13.26679 32364 ft 408 kts 291°
2026-05-04 17:04 39.63983 13.19840 32764 ft 407 kts 291°
2026-05-04 17:05 39.66070 13.13062 33163 ft 406 kts 291°
2026-05-04 17:05 39.68178 13.06198 33299 ft 410 kts 291°
2026-05-04 17:06 39.70277 12.99343 33779 ft 406 kts 291°
2026-05-04 17:06 39.71319 12.95936 33990 ft 405 kts 290°
2026-05-04 17:07 39.73402 12.89110 34114 ft 408 kts 290°
2026-05-04 17:07 39.74095 12.86832 34116 ft 408 kts 290°
2026-05-04 17:07 39.76510 12.78892 34119 ft 405 kts 290°
2026-05-04 17:08 39.79599 12.68701 34121 ft 402 kts 290°
2026-05-04 17:09 39.81642 12.61936 34116 ft 401 kts 290°
2026-05-04 17:09 39.83682 12.55164 34117 ft 401 kts 290°
2026-05-04 17:10 39.88758 12.38244 34123 ft 404 kts 290°
2026-05-04 17:11 39.90796 12.31417 34114 ft 405 kts 290°
2026-05-04 17:12 39.93870 12.21092 34117 ft 408 kts 290°
2026-05-04 17:13 39.98986 12.03814 34104 ft 410 kts 289°
2026-05-04 17:14 40.03082 11.89901 34113 ft 411 kts 289°
2026-05-04 17:15 40.06152 11.79428 34104 ft 412 kts 289°
2026-05-04 17:16 40.10212 11.65485 34099 ft 412 kts 289°
2026-05-04 17:17 40.14256 11.51517 34100 ft 412 kts 289°
2026-05-04 17:18 40.18298 11.37483 34096 ft 412 kts 289°
2026-05-04 17:19 40.22323 11.23435 34090 ft 413 kts 289°
2026-05-04 17:20 40.26337 11.09347 34085 ft 413 kts 289°
2026-05-04 17:20 40.29341 10.98754 34085 ft 413 kts 289°
2026-05-04 17:21 40.33313 10.84680 34082 ft 413 kts 289°
2026-05-04 17:22 40.35301 10.77606 34080 ft 413 kts 289°
2026-05-04 17:23 40.39264 10.63445 34077 ft 413 kts 288°
2026-05-04 17:24 40.42227 10.52812 34076 ft 413 kts 288°
2026-05-04 17:25 40.46146 10.38672 34059 ft 412 kts 288°
2026-05-04 17:26 40.50049 10.24511 34065 ft 411 kts 288°
2026-05-04 17:27 40.54868 10.06917 34059 ft 410 kts 287°
2026-05-04 17:28 40.58710 9.92802 34067 ft 410 kts 287°
2026-05-04 17:29 40.64456 9.71543 34062 ft 412 kts 287°
2026-05-04 17:31 40.69232 9.53732 34066 ft 415 kts 287°
2026-05-04 17:32 40.73381 9.35562 34062 ft 413 kts 280°
2026-05-04 17:33 40.75872 9.20750 34052 ft 414 kts 280°
2026-05-04 17:34 40.78425 9.05941 34055 ft 414 kts 279°
2026-05-04 17:35 40.81588 8.87439 34042 ft 415 kts 279°
2026-05-04 17:36 40.82309 8.79942 34047 ft 411 kts 271°
2026-05-04 17:36 40.82662 8.72375 34041 ft 411 kts 271°
2026-05-04 17:37 40.83030 8.64853 34044 ft 410 kts 271°
2026-05-04 17:37 40.83422 8.57335 34032 ft 410 kts 271°
2026-05-04 17:38 40.83815 8.49847 34034 ft 408 kts 271°
2026-05-04 17:38 40.84201 8.42410 34030 ft 407 kts 271°
2026-05-04 17:39 40.84708 8.32436 34036 ft 406 kts 270°
2026-05-04 17:39 40.85055 8.25023 34021 ft 406 kts 270°
2026-05-04 17:40 40.85398 8.17597 34024 ft 405 kts 270°
2026-05-04 17:40 40.85739 8.10166 34022 ft 405 kts 270°
2026-05-04 17:41 40.86077 8.02744 34018 ft 404 kts 270°
2026-05-04 17:41 40.86416 7.95326 34034 ft 404 kts 270°
2026-05-04 17:42 40.86761 7.87899 34026 ft 405 kts 270°
2026-05-04 17:42 40.87103 7.80464 34021 ft 405 kts 270°
2026-05-04 17:43 40.87437 7.73082 34010 ft 405 kts 270°
2026-05-04 17:43 40.87769 7.65643 34004 ft 406 kts 270°
2026-05-04 17:44 40.88095 7.58198 34016 ft 406 kts 270°
2026-05-04 17:44 40.88417 7.50744 34013 ft 407 kts 269°
2026-05-04 17:45 40.88735 7.43271 34008 ft 408 kts 269°
2026-05-04 17:45 40.89050 7.35767 34006 ft 409 kts 269°
2026-05-04 17:46 40.89359 7.28299 34000 ft 409 kts 269°
2026-05-04 17:46 40.89665 7.20789 34001 ft 410 kts 269°
2026-05-04 17:47 40.89963 7.13240 33994 ft 410 kts 269°
2026-05-04 17:47 40.90252 7.05758 33995 ft 410 kts 269°
2026-05-04 17:48 40.90539 6.98232 33989 ft 410 kts 269°
2026-05-04 17:48 40.90820 6.90709 33993 ft 410 kts 269°
2026-05-04 17:49 40.91098 6.83179 34013 ft 410 kts 269°
2026-05-04 17:49 40.91370 6.75652 33994 ft 410 kts 269°
2026-05-04 17:50 40.91637 6.68124 33979 ft 410 kts 269°
2026-05-04 17:50 40.91900 6.60587 33991 ft 410 kts 269°
2026-05-04 17:51 40.92157 6.53056 33976 ft 410 kts 269°
2026-05-04 17:51 40.92408 6.45586 33992 ft 410 kts 268°
2026-05-04 17:52 40.92656 6.38047 33978 ft 410 kts 268°
2026-05-04 17:52 40.92899 6.30499 33978 ft 410 kts 268°
2026-05-04 17:53 40.93138 6.22946 33973 ft 411 kts 268°
2026-05-04 17:53 40.93371 6.15435 33972 ft 411 kts 268°
2026-05-04 17:54 40.93600 6.07864 33992 ft 411 kts 268°
2026-05-04 17:54 40.93824 6.00293 33975 ft 411 kts 268°
2026-05-04 17:55 40.94044 5.92738 33962 ft 411 kts 268°
2026-05-04 17:55 40.94257 5.85223 33965 ft 411 kts 268°
2026-05-04 17:56 40.94466 5.77678 33961 ft 410 kts 268°
2026-05-04 17:56 40.94672 5.70137 33988 ft 410 kts 268°
2026-05-04 17:57 40.95321 5.62583 33966 ft 414 kts 273°
2026-05-04 17:57 40.96214 5.55079 33954 ft 415 kts 273°
2026-05-04 17:58 40.97094 5.47546 33953 ft 414 kts 273°
2026-05-04 17:58 40.97942 5.40005 33953 ft 414 kts 273°
2026-05-04 17:59 40.98775 5.32454 33980 ft 414 kts 272°
2026-05-04 18:00 41.00008 5.21164 33953 ft 412 kts 272°
2026-05-04 18:00 41.00822 5.13661 33947 ft 411 kts 272°
2026-05-04 18:01 41.01630 5.06168 33948 ft 410 kts 272°
2026-05-04 18:01 41.02431 4.98681 33955 ft 410 kts 272°
2026-05-04 18:02 41.03618 4.87511 33951 ft 410 kts 271°
2026-05-04 18:02 41.04408 4.80020 33938 ft 410 kts 271°
2026-05-04 18:03 41.05193 4.72533 33935 ft 410 kts 271°
2026-05-04 18:03 41.05976 4.65028 33935 ft 410 kts 271°
2026-05-04 18:04 41.06767 4.57511 33934 ft 411 kts 271°
2026-05-04 18:05 41.07948 4.46277 33940 ft 413 kts 272°
2026-05-04 18:05 41.08755 4.38735 33933 ft 414 kts 272°
2026-05-04 18:06 41.09964 4.27376 33931 ft 415 kts 272°
2026-05-04 18:06 41.10759 4.19829 33931 ft 415 kts 272°
2026-05-04 18:07 41.11554 4.12221 33939 ft 417 kts 272°
2026-05-04 18:07 41.12346 4.04595 33926 ft 417 kts 272°
2026-05-04 18:08 41.13135 3.96949 33926 ft 417 kts 272°
2026-05-04 18:08 41.13917 3.89324 33921 ft 417 kts 272°
2026-05-04 18:09 41.15461 3.74105 33930 ft 417 kts 272°
2026-05-04 18:10 41.16217 3.66469 33923 ft 417 kts 272°
2026-05-04 18:10 41.16965 3.58845 33924 ft 416 kts 272°
2026-05-04 18:11 41.17710 3.51215 33924 ft 416 kts 272°
2026-05-04 18:11 41.18449 3.43603 33920 ft 416 kts 272°
2026-05-04 18:12 41.19189 3.36040 33922 ft 415 kts 272°
2026-05-04 18:12 41.19933 3.28430 33923 ft 415 kts 272°
2026-05-04 18:13 41.20671 3.20822 33924 ft 415 kts 272°
2026-05-04 18:14 41.21765 3.09391 33924 ft 415 kts 271°
2026-05-04 18:14 41.22486 3.01772 33935 ft 415 kts 271°
2026-05-04 18:15 41.23908 2.86575 33931 ft 416 kts 271°
2026-05-04 18:16 41.24615 2.78954 33929 ft 416 kts 271°
2026-05-04 18:16 41.25316 2.71332 33926 ft 416 kts 271°
2026-05-04 18:17 41.26360 2.59868 33940 ft 417 kts 271°
2026-05-04 18:18 41.27391 2.48426 33929 ft 418 kts 271°
2026-05-04 18:18 41.28076 2.40748 33926 ft 418 kts 271°
2026-05-04 18:19 41.29098 2.29197 33914 ft 419 kts 271°
2026-05-04 18:19 41.29773 2.21486 33922 ft 420 kts 271°
2026-05-04 18:20 41.30438 2.13814 33911 ft 420 kts 270°
2026-05-04 18:20 41.30247 2.06157 33916 ft 412 kts 257°
2026-05-04 18:21 41.29340 1.98635 33913 ft 412 kts 257°
2026-05-04 18:21 41.28457 1.91090 33911 ft 412 kts 258°
2026-05-04 18:22 41.27586 1.83524 33949 ft 413 kts 258°
2026-05-04 18:22 41.26717 1.75975 33940 ft 414 kts 258°
2026-05-04 18:23 41.25838 1.68412 33940 ft 413 kts 258°
2026-05-04 18:23 41.24948 1.60900 33928 ft 413 kts 257°
2026-05-04 18:24 41.24047 1.53356 33940 ft 413 kts 257°
2026-05-04 18:24 41.23144 1.45812 33957 ft 413 kts 257°
2026-05-04 18:25 41.22235 1.38267 33958 ft 413 kts 257°
2026-05-04 18:25 41.21324 1.30740 33960 ft 413 kts 257°
2026-05-04 18:26 41.20409 1.23212 33969 ft 412 kts 257°
2026-05-04 18:26 41.19645 1.16967 33963 ft 412 kts 257°
2026-05-04 18:27 41.18725 1.09466 33972 ft 412 kts 257°
2026-05-04 18:27 41.17803 1.01973 33964 ft 411 kts 257°
2026-05-04 18:28 41.16876 0.94473 33952 ft 411 kts 257°
2026-05-04 18:28 41.15946 0.86991 33921 ft 411 kts 257°
2026-05-04 18:29 41.15018 0.79564 33928 ft 411 kts 257°
2026-05-04 18:29 41.14077 0.72068 33932 ft 412 kts 257°
2026-05-04 18:30 41.12662 0.60828 33928 ft 412 kts 257°
2026-05-04 18:31 41.11725 0.53341 33936 ft 411 kts 257°
2026-05-04 18:31 41.10780 0.45873 33933 ft 410 kts 257°
2026-05-04 18:32 41.09814 0.38432 33942 ft 410 kts 257°
2026-05-04 18:32 41.08845 0.31029 33945 ft 410 kts 257°
2026-05-04 18:33 41.07865 0.23565 33947 ft 410 kts 257°
2026-05-04 18:33 41.06883 0.16113 33943 ft 411 kts 257°
2026-05-04 18:34 41.05894 0.08650 33951 ft 411 kts 257°
2026-05-04 18:34 41.04901 0.01189 33955 ft 411 kts 257°
2026-05-04 18:35 41.03903 -0.06273 33970 ft 412 kts 257°
2026-05-04 18:35 41.02901 -0.13717 33959 ft 413 kts 257°
2026-05-04 18:36 41.01891 -0.21207 33966 ft 414 kts 257°
2026-05-04 18:36 41.00825 -0.28709 33956 ft 413 kts 253°
2026-05-04 18:37 40.98954 -0.35874 33968 ft 411 kts 248°
2026-05-04 18:37 40.96997 -0.42989 33967 ft 412 kts 248°
2026-05-04 18:38 40.95068 -0.50074 33973 ft 412 kts 249°
2026-05-04 18:38 40.93130 -0.57212 33970 ft 412 kts 249°
2026-05-04 18:39 40.91187 -0.64347 33960 ft 412 kts 249°
2026-05-04 18:39 40.89246 -0.71461 33957 ft 411 kts 249°
2026-05-04 18:40 40.87302 -0.78561 33976 ft 411 kts 249°
2026-05-04 18:40 40.85341 -0.85663 33968 ft 411 kts 249°
2026-05-04 18:41 40.83372 -0.92755 33968 ft 412 kts 249°
2026-05-04 18:41 40.81399 -0.99848 33965 ft 412 kts 249°
2026-05-04 18:42 40.79419 -1.06950 33979 ft 411 kts 249°
2026-05-04 18:42 40.77451 -1.13992 33975 ft 411 kts 249°
2026-05-04 18:43 40.75471 -1.21060 33985 ft 411 kts 249°
2026-05-04 18:43 40.73623 -1.27637 33977 ft 411 kts 249°
2026-05-04 18:44 40.72218 -1.32634 33980 ft 411 kts 249°
2026-05-04 18:44 40.70303 -1.39438 33978 ft 410 kts 249°
2026-05-04 18:45 40.68399 -1.46187 33983 ft 410 kts 249°
2026-05-04 18:45 40.66422 -1.53180 34004 ft 409 kts 249°
2026-05-04 18:46 40.64435 -1.60190 33980 ft 408 kts 249°
2026-05-04 18:46 40.62450 -1.67171 33977 ft 407 kts 249°
2026-05-04 18:47 40.60463 -1.74142 33959 ft 406 kts 249°
2026-05-04 18:47 40.58475 -1.81098 33962 ft 405 kts 249°
2026-05-04 18:48 40.56488 -1.88031 33976 ft 405 kts 249°
2026-05-04 18:48 40.54527 -1.94856 33971 ft 405 kts 249°
2026-05-04 18:49 40.52524 -2.01812 33973 ft 406 kts 249°
2026-05-04 18:49 40.50506 -2.08798 33969 ft 407 kts 249°
2026-05-04 18:50 40.48506 -2.15709 33971 ft 408 kts 249°
2026-05-04 18:50 40.46480 -2.22699 33973 ft 409 kts 249°
2026-05-04 18:51 40.44460 -2.29653 33968 ft 409 kts 250°
2026-05-04 18:51 40.42428 -2.36630 33959 ft 408 kts 250°
2026-05-04 18:52 40.40433 -2.43460 33958 ft 407 kts 250°
2026-05-04 18:52 40.38429 -2.50309 33951 ft 406 kts 249°
2026-05-04 18:53 40.36549 -2.57280 33955 ft 405 kts 254°
2026-05-04 18:53 40.35030 -2.64349 33956 ft 405 kts 254°
2026-05-04 18:54 40.33510 -2.71451 33959 ft 405 kts 254°
2026-05-04 18:54 40.31972 -2.78533 33960 ft 404 kts 254°
2026-05-04 18:55 40.30425 -2.85602 33959 ft 404 kts 254°
2026-05-04 18:55 40.28094 -2.96213 33952 ft 404 kts 254°
2026-05-04 18:56 40.26557 -3.03181 33952 ft 404 kts 254°
2026-05-04 18:56 40.24992 -3.10242 33959 ft 403 kts 254°
2026-05-04 18:57 40.23428 -3.17282 33962 ft 402 kts 254°
2026-05-04 18:57 40.21862 -3.24312 33970 ft 402 kts 254°
2026-05-04 18:58 40.20301 -3.31342 33955 ft 402 kts 254°
2026-05-04 18:58 40.18743 -3.38352 33966 ft 401 kts 254°
2026-05-04 18:59 40.17181 -3.45348 33980 ft 400 kts 254°
2026-05-04 18:59 40.15627 -3.52291 33964 ft 400 kts 254°
2026-05-04 19:00 40.14222 -3.58546 33975 ft 399 kts 254°
2026-05-04 19:00 40.12655 -3.65513 33972 ft 399 kts 254°
2026-05-04 19:01 40.11084 -3.72467 33972 ft 399 kts 254°
2026-05-04 19:01 40.09522 -3.79299 33979 ft 399 kts 254°
2026-05-04 19:02 40.07909 -3.86309 33982 ft 399 kts 254°
2026-05-04 19:02 40.06309 -3.93248 33978 ft 398 kts 254°
2026-05-04 19:03 40.04711 -4.00166 33969 ft 398 kts 254°
2026-05-04 19:03 40.03217 -4.06615 33971 ft 398 kts 254°
2026-05-04 19:04 40.01658 -4.13327 33975 ft 398 kts 254°
2026-05-04 19:04 40.00047 -4.20244 33976 ft 398 kts 254°
2026-05-04 19:05 39.98435 -4.27146 33967 ft 398 kts 254°
2026-05-04 19:05 39.96817 -4.34052 33977 ft 398 kts 254°
2026-05-04 19:06 39.95392 -4.40977 33963 ft 398 kts 256°
2026-05-04 19:06 39.94026 -4.48005 33949 ft 397 kts 256°
2026-05-04 19:07 39.92634 -4.54968 33975 ft 397 kts 256°
2026-05-04 19:07 39.91231 -4.61889 33971 ft 397 kts 256°
2026-05-04 19:08 39.89804 -4.68855 33975 ft 397 kts 256°
2026-05-04 19:08 39.88378 -4.75793 33971 ft 396 kts 256°
2026-05-04 19:09 39.86949 -4.82735 33974 ft 396 kts 256°
2026-05-04 19:09 39.85520 -4.89658 33966 ft 396 kts 256°
2026-05-04 19:10 39.84095 -4.96538 33990 ft 396 kts 256°
2026-05-04 19:10 39.82658 -5.03451 33975 ft 395 kts 256°
2026-05-04 19:11 39.81222 -5.10344 33968 ft 395 kts 256°
2026-05-04 19:11 39.79780 -5.17237 33972 ft 394 kts 256°
2026-05-04 19:12 39.77618 -5.27541 33968 ft 393 kts 256°
2026-05-04 19:13 39.76173 -5.34390 33968 ft 393 kts 256°
2026-05-04 19:13 39.74963 -5.40093 33973 ft 393 kts 256°
2026-05-04 19:14 39.73507 -5.46936 33979 ft 393 kts 256°
2026-05-04 19:14 39.72048 -5.53781 33974 ft 393 kts 256°
2026-05-04 19:15 39.70584 -5.60628 33967 ft 393 kts 256°
2026-05-04 19:15 39.68881 -5.68565 33981 ft 392 kts 256°
2026-05-04 19:16 39.67648 -5.74291 33985 ft 393 kts 256°
2026-05-04 19:16 39.66184 -5.81075 33983 ft 393 kts 256°
2026-05-04 19:17 39.64708 -5.87890 33976 ft 392 kts 256°
2026-05-04 19:17 39.63228 -5.94708 33988 ft 392 kts 256°
2026-05-04 19:18 39.61745 -6.01515 33986 ft 392 kts 256°
2026-05-04 19:18 39.60258 -6.08323 33986 ft 392 kts 256°
2026-05-04 19:19 39.58764 -6.15136 33992 ft 392 kts 256°
2026-05-04 19:19 39.57281 -6.21884 33993 ft 392 kts 256°
2026-05-04 19:20 39.55785 -6.28665 33994 ft 391 kts 256°
2026-05-04 19:20 39.54286 -6.35451 34002 ft 391 kts 256°
2026-05-04 19:21 39.52774 -6.42219 34006 ft 391 kts 255°
2026-05-04 19:21 39.50554 -6.48676 34015 ft 394 kts 247°
2026-05-04 19:22 39.48098 -6.54979 34013 ft 394 kts 248°
2026-05-04 19:22 39.45641 -6.61327 34012 ft 394 kts 248°
2026-05-04 19:23 39.43192 -6.67669 34014 ft 394 kts 248°
2026-05-04 19:23 39.40742 -6.74003 34025 ft 393 kts 248°
2026-05-04 19:24 39.38305 -6.80294 34027 ft 393 kts 248°
2026-05-04 19:24 39.35853 -6.86609 34016 ft 394 kts 248°
2026-05-04 19:25 39.33393 -6.92930 34029 ft 394 kts 248°
2026-05-04 19:25 39.30922 -6.99267 34032 ft 394 kts 248°
2026-05-04 19:26 39.28456 -7.05578 34040 ft 394 kts 248°
2026-05-04 19:26 39.25995 -7.11865 34043 ft 394 kts 248°
2026-05-04 19:27 39.23513 -7.18195 33243 ft 397 kts 248°
2026-05-04 19:27 39.22271 -7.21351 32604 ft 394 kts 248°
2026-05-04 19:27 39.21023 -7.24495 31921 ft 394 kts 247°
2026-05-04 19:27 39.19755 -7.27627 31176 ft 395 kts 247°
2026-05-04 19:28 39.18477 -7.30761 30457 ft 396 kts 247°
2026-05-04 19:28 39.17191 -7.33912 29628 ft 397 kts 247°
2026-05-04 19:28 39.15903 -7.37068 28772 ft 397 kts 247°
2026-05-04 19:28 39.14617 -7.40218 27946 ft 397 kts 246°
2026-05-04 19:29 39.13332 -7.43367 27107 ft 398 kts 246°
2026-05-04 19:29 39.12045 -7.46523 26222 ft 400 kts 246°
2026-05-04 19:29 39.10753 -7.49684 25826 ft 392 kts 246°
2026-05-04 19:29 39.09480 -7.52795 25640 ft 395 kts 246°
2026-05-04 19:30 39.08218 -7.55881 25468 ft 393 kts 246°
2026-05-04 19:30 39.06963 -7.58943 25324 ft 379 kts 246°
2026-05-04 19:30 39.05756 -7.61880 25175 ft 364 kts 246°
2026-05-04 19:30 39.04594 -7.64707 25095 ft 352 kts 246°
2026-05-04 19:31 39.03491 -7.67478 25076 ft 344 kts 248°
2026-05-04 19:31 39.02450 -7.70201 25061 ft 331 kts 248°
2026-05-04 19:31 39.01466 -7.72803 25054 ft 318 kts 248°
2026-05-04 19:31 39.00519 -7.75304 25050 ft 304 kts 249°
2026-05-04 19:32 38.99610 -7.77699 25043 ft 292 kts 249°
2026-05-04 19:32 38.98736 -7.79997 25047 ft 279 kts 249°
2026-05-04 19:32 38.97899 -7.82190 25051 ft 267 kts 249°
2026-05-04 19:32 38.97110 -7.84256 25047 ft 255 kts 249°
2026-05-04 19:33 38.96344 -7.86260 25053 ft 243 kts 249°
2026-05-04 19:33 38.95606 -7.88192 25033 ft 244 kts 249°
2026-05-04 19:33 38.94841 -7.90206 25064 ft 258 kts 249°
2026-05-04 19:33 38.94029 -7.92342 24668 ft 273 kts 249°
2026-05-04 19:34 38.93174 -7.94576 23947 ft 288 kts 248°
2026-05-04 19:34 38.92267 -7.96937 23231 ft 299 kts 248°
2026-05-04 19:34 38.91338 -7.99347 22665 ft 303 kts 248°
2026-05-04 19:34 38.90372 -8.01759 22276 ft 304 kts 243°
2026-05-04 19:35 38.89112 -8.03945 21937 ft 305 kts 236°
2026-05-04 19:35 38.87747 -8.06033 21581 ft 305 kts 235°
2026-05-04 19:35 38.86372 -8.08100 21196 ft 304 kts 235°
2026-05-04 19:35 38.85001 -8.10166 20834 ft 304 kts 235°
2026-05-04 19:36 38.83639 -8.12231 20469 ft 303 kts 235°
2026-05-04 19:36 38.82284 -8.14296 20097 ft 303 kts 235°
2026-05-04 19:36 38.80947 -8.16341 19764 ft 302 kts 235°
2026-05-04 19:36 38.79603 -8.18402 19424 ft 301 kts 235°
2026-05-04 19:37 38.78265 -8.20456 19118 ft 300 kts 235°
2026-05-04 19:37 38.76933 -8.22502 18792 ft 299 kts 235°
2026-05-04 19:37 38.75599 -8.24551 18464 ft 299 kts 235°
2026-05-04 19:37 38.74268 -8.26596 18105 ft 298 kts 235°
2026-05-04 19:38 38.72945 -8.28627 17764 ft 297 kts 235°
2026-05-04 19:38 38.71623 -8.30655 17421 ft 296 kts 235°
2026-05-04 19:38 38.70309 -8.32670 17071 ft 295 kts 235°
2026-05-04 19:38 38.68991 -8.34690 16720 ft 294 kts 235°
2026-05-04 19:39 38.67681 -8.36698 16379 ft 294 kts 235°
2026-05-04 19:39 38.66367 -8.38709 16058 ft 293 kts 235°
2026-05-04 19:39 38.65061 -8.40707 15745 ft 292 kts 235°
2026-05-04 19:39 38.63760 -8.42697 15411 ft 292 kts 235°
2026-05-04 19:40 38.62458 -8.44687 15105 ft 291 kts 235°
2026-05-04 19:40 38.61160 -8.46670 14801 ft 290 kts 234°
2026-05-04 19:40 38.59865 -8.48647 14486 ft 289 kts 234°
2026-05-04 19:40 38.58576 -8.50615 14186 ft 289 kts 234°
2026-05-04 19:41 38.57299 -8.52561 13859 ft 289 kts 234°
2026-05-04 19:41 38.56005 -8.54532 13524 ft 288 kts 234°
2026-05-04 19:41 38.54713 -8.56498 13123 ft 290 kts 234°
2026-05-04 19:41 38.53402 -8.58450 12835 ft 288 kts 233°
2026-05-04 19:42 38.52088 -8.60378 12548 ft 286 kts 233°
2026-05-04 19:42 38.50782 -8.62288 12288 ft 284 kts 233°
2026-05-04 19:42 38.49484 -8.64189 11996 ft 283 kts 233°
2026-05-04 19:42 38.48198 -8.66072 11736 ft 281 kts 233°
2026-05-04 19:43 38.46932 -8.67927 11484 ft 280 kts 233°
2026-05-04 19:43 38.45652 -8.69802 11222 ft 279 kts 232°
2026-05-04 19:43 38.44377 -8.71670 10942 ft 279 kts 232°
2026-05-04 19:43 38.43099 -8.73542 10668 ft 280 kts 232°
2026-05-04 19:44 38.41820 -8.75415 10403 ft 280 kts 232°
2026-05-04 19:44 38.40542 -8.77285 10142 ft 280 kts 232°
2026-05-04 19:44 38.39259 -8.79161 9867 ft 280 kts 232°
2026-05-04 19:44 38.37975 -8.81039 9581 ft 281 kts 232°
2026-05-04 19:45 38.36697 -8.82904 9304 ft 280 kts 232°
2026-05-04 19:45 38.35409 -8.84783 9037 ft 280 kts 232°
2026-05-04 19:45 38.34243 -8.86734 8749 ft 276 kts 247°
2026-05-04 19:45 38.33835 -8.89066 8513 ft 268 kts 273°
2026-05-04 19:46 38.34218 -8.91351 8260 ft 265 kts 293°
2026-05-04 19:46 38.35212 -8.93304 7996 ft 264 kts 312°
2026-05-04 19:46 38.36526 -8.94935 7759 ft 263 kts 315°
2026-05-04 19:46 38.37855 -8.96541 7498 ft 262 kts 315°
2026-05-04 19:47 38.38925 -8.98394 7222 ft 261 kts 290°
2026-05-04 19:47 38.39158 -9.00654 7196 ft 267 kts 266°
2026-05-04 19:47 38.38674 -9.02929 7138 ft 269 kts 245°
2026-05-04 19:47 38.37684 -9.04930 7113 ft 265 kts 238°
2026-05-04 19:48 38.36643 -9.06895 7099 ft 261 kts 238°
2026-05-04 19:48 38.35656 -9.08760 7089 ft 251 kts 238°
2026-05-04 19:48 38.34736 -9.10575 7092 ft 234 kts 249°
2026-05-04 19:48 38.34444 -9.12575 7136 ft 231 kts 279°
2026-05-04 19:49 38.34985 -9.14441 7127 ft 223 kts 307°
2026-05-04 19:49 38.36126 -9.15694 7098 ft 216 kts 330°
2026-05-04 19:49 38.37573 -9.16377 6623 ft 221 kts 341°
2026-05-04 19:49 38.39023 -9.16861 6358 ft 209 kts 343°
2026-05-04 19:50 38.40379 -9.17295 6182 ft 193 kts 342°
2026-05-04 19:50 38.41635 -9.17700 6031 ft 180 kts 342°
2026-05-04 19:50 38.42834 -9.18095 5882 ft 178 kts 342°
2026-05-04 19:50 38.44044 -9.18499 5778 ft 181 kts 343°
2026-05-04 19:51 38.45283 -9.18914 5645 ft 184 kts 342°
2026-05-04 19:51 38.46517 -9.19331 5510 ft 182 kts 342°
2026-05-04 19:51 38.47744 -9.19746 5373 ft 183 kts 342°
2026-05-04 19:51 38.49034 -9.20187 5251 ft 198 kts 343°
2026-05-04 19:52 38.50393 -9.20652 5103 ft 203 kts 342°
2026-05-04 19:52 38.51754 -9.21117 4928 ft 200 kts 343°
2026-05-04 19:52 38.53033 -9.21553 4764 ft 181 kts 342°
2026-05-04 19:52 38.54227 -9.21962 4617 ft 177 kts 342°
2026-05-04 19:53 38.55408 -9.22368 4444 ft 175 kts 342°
2026-05-04 19:53 38.56582 -9.22772 4310 ft 175 kts 343°
2026-05-04 19:53 38.57748 -9.23173 4186 ft 175 kts 343°
2026-05-04 19:53 38.58932 -9.23525 4049 ft 171 kts 354°
2026-05-04 19:54 38.60064 -9.23188 3896 ft 169 kts 16°
2026-05-04 19:54 38.61162 -9.22660 3674 ft 168 kts 17°
2026-05-04 19:54 38.62250 -9.22105 3450 ft 168 kts 17°
2026-05-04 19:54 38.63329 -9.21536 3227 ft 168 kts 18°
2026-05-04 19:55 38.64407 -9.20959 2989 ft 167 kts 18°
2026-05-04 19:55 38.65465 -9.20390 2770 ft 161 kts 17°
2026-05-04 19:55 38.66474 -9.19848 2556 ft 157 kts 19°
2026-05-04 19:55 38.67476 -9.19311 2332 ft 157 kts 19°
2026-05-04 19:56 38.68480 -9.18773 2099 ft 155 kts 17°
2026-05-04 19:56 38.69434 -9.18259 1921 ft 140 kts 17°
2026-05-04 19:56 38.70305 -9.17792 1717 ft 131 kts 17°
2026-05-04 19:56 38.71150 -9.17340 1541 ft 135 kts 17°
2026-05-04 19:57 38.72035 -9.16865 1371 ft 142 kts 16°
2026-05-04 19:57 38.72963 -9.16368 1169 ft 144 kts 17°
2026-05-04 19:57 38.73890 -9.15871 976 ft 145 kts 18°
2026-05-04 19:57 38.74817 -9.15374 764 ft 141 kts 19°
2026-05-04 19:58 38.75725 -9.14892 572 ft 143 kts 20°
2026-05-04 19:58 38.76604 -9.14388 377 ft 140 kts 16°
2026-05-04 19:58 38.77177 -9.14105 363 ft 129 kts 15°
2026-05-04 19:58 38.77858 -9.13747 365 ft 83 kts 22°
2026-05-04 19:59 38.78207 -9.13546 365 ft 36 kts 32°
2026-05-04 19:59 38.78372 -9.13300 367 ft 22 kts 106°
2026-05-04 19:59 38.78285 -9.13280 359 ft 22 kts 200°
2026-05-04 19:59 38.78147 -9.13356 359 ft 21 kts 200°
2026-05-04 20:00 38.78011 -9.13427 360 ft 21 kts 202°
2026-05-04 20:00 38.77882 -9.13497 360 ft 20 kts 202°
2026-05-04 20:00 38.77713 -9.13587 357 ft 19 kts 203°
2026-05-04 20:00 38.77633 -9.13630 358 ft 19 kts 202°
2026-05-04 20:01 38.77516 -9.13692 357 ft 18 kts 203°
2026-05-04 20:01 38.77405 -9.13753 361 ft 17 kts 203°
2026-05-04 20:01 38.77295 -9.13810 361 ft 17 kts 203°
2026-05-04 20:01 38.77193 -9.13866 360 ft 16 kts 203°
2026-05-04 20:02 38.77087 -9.13895 355 ft 15 kts 174°
2026-05-04 20:02 38.76984 -9.13867 349 ft 15 kts 167°
2026-05-04 20:02 38.76885 -9.13840 349 ft 15 kts 168°
2026-05-04 20:02 38.76787 -9.13815 350 ft 14 kts 168°
2026-05-04 20:03 38.76693 -9.13789 347 ft 14 kts 168°
2026-05-04 20:03 38.76625 -9.13725 349 ft 13 kts 103°
2026-05-04 20:03 38.76577 -9.13666 350 ft 4 kts 176°
2026-05-04 20:03 38.76548 -9.13680 354 ft 4 kts 208°
2026-05-04 20:04 38.76518 -9.13693 347 ft 6 kts 187°
2026-05-04 20:04 38.76474 -9.13685 352 ft 0 kts 168°
2026-05-04 20:04 38.76468 -9.13684 356 ft 2 kts 167°
2026-05-04 20:04 38.76464 -9.13683 356 ft 0 kts 167°